Flag for Greenland

Past Weather in Nuuk, Greenland — Yesterday and Last 2 Weeks

Now
54 °F

Passing clouds.


Feels Like: 52 °F
Forecast: 53 / 42 °F
Wind: 6 mph from North

Location: Godthaab / Nuuk

Current Time: Jul 16, 2020 at 2:22:23 pm

Latest Report: Jul 16, 2020 at 1:50 pm


Visibility: N/A

Pressure: 30.01 "Hg

Humidity: 72%

Dew Point: 45 °F

Location of NuukLocation

Past Weather in Nuuk — Graph

°F

Nuuk Temperature Yesterday

Maximum temperature yesterday: 55 °F (at 3:50 pm)
Minimum temperature yesterday: 36 °F (at 5:50 am)
Average temperature yesterday: 44 °F

High & Low Weather Summary for the Past Weeks

 TemperatureHumidityPressure
High59 °F (Jul 8, 8:50 pm)100% (Jul 2, 4:50 am)30.04 "Hg (Jul 2, 4:50 am)
Low34 °F (Jul 2, 4:50 am)51% (Jul 2, 7:50 pm)29.53 "Hg (Jul 9, 3:50 pm)
Average45 °F83%29.81 "Hg
* Reported Jul 1 12:50 pm — Jul 16 12:50 pm, Nuuk. Weather by CustomWeather, © 2020

Note: Actual official high and low records may vary slightly from our data, if they occured in-between our weather recording intervals... More about our weather records

Nuuk Weather History for the Previous 24 Hours

Scroll right to see more
 ConditionsComfort  
Time TempWeatherWind HumidityBarometerVisibility
12:50 pm
Thu, Jul 16
52 °FPassing clouds.5 mph77%30.01 "HgN/A
11:50 am50 °FPassing clouds.5 mph76%30.01 "HgN/A
10:50 am48 °FPartly sunny.6 mph82%30.04 "HgN/A
9:50 am50 °FScattered clouds.2 mph82%30.01 "HgN/A
8:50 am46 °FScattered clouds.5 mph87%30.01 "HgN/A
7:50 am46 °FFog.6 mph87%30.01 "HgN/A
6:50 am45 °FScattered clouds.8 mph87%29.98 "HgN/A
5:50 am45 °FPartly sunny.7 mph87%30.01 "HgN/A
4:50 am43 °FBroken clouds.6 mph93%29.98 "HgN/A
3:50 am45 °FOvercast.6 mph87%30.01 "HgN/A
2:50 am45 °FPassing clouds.6 mph81%29.98 "HgN/A
1:50 am46 °FOvercast.5 mph76%29.98 "HgN/A
12:50 am48 °FPassing clouds.6 mph66%29.98 "HgN/A
11:50 pm
Wed, Jul 15
48 °FPassing clouds.5 mph62%29.98 "HgN/A
10:50 pm48 °FPartly sunny.6 mph62%30.01 "HgN/A
9:50 pm48 °FPartly sunny.7 mph66%30.01 "HgN/A
8:50 pm50 °FPartly sunny.7 mph62%29.98 "HgN/A
7:50 pm50 °FPartly sunny.8 mph67%29.98 "HgN/A
6:50 pm50 °FPartly sunny.8 mph71%29.98 "HgN/A
5:50 pm48 °FPartly sunny.7 mph76%29.98 "HgN/A
4:50 pm52 °FScattered clouds.10 mph72%29.98 "HgN/A
3:50 pm55 °FScattered clouds.2 mph63%29.95 "HgN/A
2:50 pm54 °FPassing clouds.5 mph67%29.95 "HgN/A
Weather by CustomWeather, © 2020

See weather overview